DW0841 Weather Reports


Display with metric or nautical units.
time (UTC)temp
F
wind
direction
speed
MPH
gust
MPH
rain 1hr
in
rain 24hr
in
rain mn
in
humidity
%
barometer
mb
20260504081718 57 45 1.0 2.0 0.00 0.01 0.00 73 1004.7
20260504080718 56 0.0 1.0 0.00 0.01 0.00 74 1004.5
20260504050717 63 0 2.0 3.0 0.00 0.02 0.00 61 1004.3
20260504045717 63 293 2.0 4.0 0.00 0.02 0.00 60 1004.1
20260504044717 64 338 4.0 5.0 0.00 0.02 0.00 57 1004.2
20260504043717 65 338 4.0 7.0 0.00 0.02 0.00 55 1004.1
20260504042717 65 315 3.0 7.0 0.00 0.02 0.00 54 1004.3
20260504041738 66 0 4.0 6.0 0.00 0.02 0.00 54 1004.4
20260504040718 66 23 2.0 3.0 0.00 0.02 0.00 54 1004.2
20260504035717 67 293 4.0 6.0 0.00 0.02 0.00 54 1004.4
20260504034717 67 0 3.0 6.0 0.00 0.02 0.00 51 1004.4
20260504033717 68 0 3.0 7.0 0.00 0.02 0.00 52 1004.6
20260504032717 68 270 3.0 7.0 0.00 0.02 0.00 51 1004.6
20260504031717 68 0 4.0 9.0 0.00 0.02 0.00 50 1004.8
20260504030738 68 338 2.0 4.0 0.00 0.02 0.00 51 1004.7
20260504025718 68 315 3.0 6.0 0.00 0.02 0.00 50 1004.8
20260504024718 69 23 1.0 3.0 0.00 0.02 0.00 50 1005.2
20260504023718 69 45 3.0 3.0 0.00 0.02 0.00 52 1005.4
20260504022717 68 0 2.0 3.0 0.00 0.02 0.00 53 1005.5
20260504021737 68 293 3.0 4.0 0.00 0.02 0.00 51 1005.8
20260504020718 67 45 1.0 3.0 0.00 0.02 0.00 53 1006.0
20260504015717 67 45 2.0 5.0 0.00 0.02 0.00 53 1006.3
20260504014717 66 293 2.0 4.0 0.00 0.02 0.00 56 1006.5
20260504013737 65 293 3.0 7.0 0.00 0.02 0.00 57 1006.6
20260504012717 65 293 1.0 3.0 0.00 0.02 0.00 57 1006.5
20260504011718 65 338 1.0 2.0 0.00 0.02 0.00 59 1006.6
20260504010717 64 45 2.0 3.0 0.00 0.02 0.00 60 1006.5
20260504005717 64 293 3.0 7.0 0.00 0.02 0.00 61 1006.5
20260504004717 64 0 1.0 3.0 0.00 0.02 0.00 61 1006.5
20260504003717 64 270 3.0 6.0 0.00 0.02 0.00 61 1006.6
20260504002737 63 338 2.0 3.0 0.00 0.02 0.00 65 1006.5
20260504001738 63 338 3.0 4.0 0.00 0.02 0.00 64 1006.6
20260504000757 62 0 1.0 3.0 0.00 0.02 0.00 67 1006.7
20260503235717 61 338 2.0 3.0 0.00 0.02 0.00 74 1006.8
20260503234717 58 0.0 1.0 0.00 0.02 0.00 84 1006.8
20260503233717 57 0.0 0.0 0.00 0.02 0.00 87 1006.9
20260503232718 57 0.0 0.0 0.00 0.02 0.00 87 1007.1
20260503231717 57 0.0 0.0 0.00 0.02 0.00 87 1007.2
20260503230717 57 0.0 0.0 0.00 0.02 0.00 87 1007.1
20260503225737 56 0.0 0.0 0.00 0.02 0.00 89 1007.1
20260503224717 55 0.0 0.0 0.00 0.02 0.00 91 1007.1
20260503223737 53 0 1.0 2.0 0.00 0.02 0.00 92 1007.3
20260503222718 51 23 1.0 3.0 0.00 0.02 0.00 92 1007.2
20260503221717 51 0 2.0 3.0 0.00 0.02 0.00 92 1007.2
20260503220718 51 0.0 1.0 0.00 0.02 0.00 92 1007.2
20260503215717 51 0 1.0 2.0 0.00 0.02 0.00 92 1007.0
20260503214737 51 0.0 1.0 0.00 0.02 0.00 92 1007.1
20260503213717 52 0 1.0 2.0 0.00 0.02 0.00 92 1006.9
20260503212737 52 338 1.0 2.0 0.00 0.02 0.00 92 1006.8
20260503211718 51 0 1.0 2.0 0.00 0.02 0.00 92 1006.6
20260503210717 52 0 1.0 3.0 0.00 0.02 0.00 92 1006.5
20260503205717 52 338 1.0 2.0 0.00 0.02 0.00 92 1006.4
20260503204717 52 0 1.0 2.0 0.00 0.02 0.00 92 1006.4
20260503203717 52 0 1.0 2.0 0.00 0.02 0.00 92 1006.4
20260503202717 53 23 2.0 2.0 0.00 0.02 0.00 91 1006.0
20260503201717 53 338 1.0 2.0 0.00 0.02 0.00 92 1005.8
20260503200717 53 0.0 0.0 0.00 0.02 0.00 92 1005.9
20260503195737 53 45 2.0 3.0 0.00 0.02 0.00 92 1006.2
20260503194717 53 0.0 0.0 0.00 0.02 0.00 92 1006.3
20260503193717 53 0.0 1.0 0.00 0.02 0.00 91 1006.1
20260503192717 54 23 1.0 1.0 0.00 0.02 0.00 91 1006.1
20260503191717 54 0.0 0.0 0.00 0.02 0.00 91 1006.1
20260503190717 54 23 1.0 2.0 0.00 0.02 0.00 91 1006.2
20260503185717 54 0.0 1.0 0.00 0.02 0.00 91 1006.2
20260503184717 55 315 1.0 2.0 0.00 0.02 0.00 91 1006.0
20260503183717 55 0.0 0.0 0.00 0.02 0.00 91 1006.1
20260503182717 55 23 1.0 3.0 0.00 0.02 0.00 91 1005.9
20260503181737 55 0 2.0 2.0 0.00 0.02 0.00 91 1005.8
20260503180737 55 0.0 0.0 0.00 0.02 0.00 91 1005.7
20260503175717 55 0.0 0.0 0.00 0.02 0.00 92 1005.6
20260503174717 55 0.0 1.0 0.00 0.02 0.00 92 1005.8
20260503173737 55 0.0 1.0 0.00 0.02 0.00 92 1005.6
20260503172717 55 0.0 0.0 0.00 0.02 0.00 92 1005.7
20260503171737 55 23 1.0 1.0 0.00 0.02 0.00 92 1005.6
20260503170717 55 0.0 0.0 0.00 0.02 0.00 92 1005.8
20260503150737 56 68 2.0 2.0 0.00 0.02 0.00 92 1006.1
20260503130716 58 0 1.0 2.0 0.00 0.02 0.02 91 1007.0
20260503110717 57 23 1.0 1.0 0.01 0.02 0.02 92 1006.7